Weather in Tours

France     47°23′06″N   0°41′27″E
temp.,
°C
wind,
m/s
gust,
m/s
humid.,
%
clouds,
%
prec.,
mm/h
press.,
hPa
HPBL,
m
23 june, wed
wed2323:00+14ne6119473 2.2 1017418
02:00+11nne5119652 2.3 1018364
05:00+11nne4996100 0.0 1019348
08:00+12nne4893100 0.0 1020377
11:00+14nne4583100 0.0 1020641
14:00+17nne457091 0.1 10201152
17:00+16nne4677100 0.1 1020813
20:00+16n467468 0.2 1020819
24 june, thu
thu2423:00+13nne368590 0.0 1022236
02:00+13n3783100 0.0 1022284
05:00+13n3687100 0.0 1021271
08:00+13n378698 0.1 1022335
11:00+14n3476100 0.0 1023474
14:00+19wnw336091 0.1 10221438
17:00+20nnw444727 0.1 10221669
20:00+19nnw23555 0.1 1022858
25 june, fri
fri2523:00+14wnw116397 0.0 102311
02:00+14ene246777 0.0 1023101
05:00+10e22815 0.0 102217
08:00+13nw01725 0.0 102295
11:00+18w33605 0.0 1022931
14:00+21w4449100 0.0 10201528
17:00+21w3459100 0.0 10191105
20:00+20sw116686 0.1 1018200
26 june, sat
sat2623:00+17nne2279100 0.1 101938
02:00+15ne2283100 0.1 101857
05:00+14se1188100 0.0 101611
08:00+16sse2484100 0.0 1016165
11:00+20s2366100 0.0 1016788
14:00+23sse3550100 0.0 10141908
17:00+25s4545100 0.0 10132040
20:00+22sw236499 0.1 1013198
27 june, sun
sun2723:00+16wsw3394100 2.6 101364
02:00+15wnw3498100 4.2 1013145
05:00+14wnw4798100 3.3 1013347
08:00+14sw3595100 3.4 1014258
11:00+16ssw348594 0.0 1015475
14:00+18sse457884 0.0 1015743
17:00+20ssw5572100 0.4 1015892
20:00+15sw51085100 0.9 1016534